| time (UTC) | temp F | wind direction | speed MPH | gust MPH | rain 1hr in | rain 24hr in | rain mn in | humidity % | barometer mb |
| 20260507163042 | 63 | 217 | 1.0 | 6.0 | 0.00 | 0.00 | 0.00 | 71 | 1016.9 |
| 20260507161547 | 63 | 129 | 3.0 | 8.0 | 0.00 | 0.00 | 0.00 | 72 | 1016.8 |
| 20260507160059 | 63 | 83 | 4.0 | 8.0 | 0.00 | 0.00 | 0.00 | 71 | 1016.8 |
| 20260507154540 | 64 | 167 | 4.0 | 11.0 | 0.00 | 0.00 | 0.00 | 70 | 1017.0 |
| 20260507153039 | 65 | 174 | 3.0 | 10.0 | 0.00 | 0.00 | 0.00 | 67 | 1017.0 |
| 20260507151539 | 65 | 137 | 3.0 | 8.0 | 0.00 | 0.00 | 0.00 | 66 | 1016.9 |
| 20260507150038 | 65 | 158 | 3.0 | 9.0 | 0.00 | 0.00 | 0.00 | 65 | 1016.9 |
| 20260507144545 | 65 | 164 | 2.0 | 12.0 | 0.00 | 0.00 | 0.00 | 64 | 1017.1 |
| 20260507143035 | 65 | 103 | 2.0 | 9.0 | 0.00 | 0.00 | 0.00 | 66 | 1017.2 |
| 20260507141534 | 65 | 128 | 5.0 | 9.0 | 0.00 | 0.00 | 0.00 | 64 | 1017.3 |
| 20260507140035 | 65 | 120 | 3.0 | 11.0 | 0.00 | 0.00 | 0.00 | 66 | 1017.5 |
| 20260507134531 | 65 | 68 | 4.0 | 12.0 | 0.00 | 0.00 | 0.00 | 65 | 1017.8 |
| 20260507133030 | 66 | 88 | 3.0 | 16.0 | 0.00 | 0.00 | 0.00 | 66 | 1017.8 |
| 20260507131531 | 66 | 178 | 4.0 | 10.0 | 0.00 | 0.00 | 0.00 | 67 | 1017.9 |
| 20260507130033 | 66 | 105 | 3.0 | 9.0 | 0.00 | 0.00 | 0.00 | 68 | 1017.9 |
| 20260507124526 | 65 | 128 | 4.0 | 14.0 | 0.00 | 0.00 | 0.00 | 68 | 1018.2 |
| 20260507123032 | 66 | 94 | 4.0 | 12.0 | 0.00 | 0.00 | 0.00 | 68 | 1018.2 |
| 20260507121523 | 66 | 115 | 5.0 | 11.0 | 0.00 | 0.00 | 0.00 | 68 | 1018.3 |
| 20260507120023 | 66 | 232 | 4.0 | 13.0 | 0.00 | 0.00 | 0.00 | 69 | 1018.3 |
| 20260507114521 | 66 | 150 | 3.0 | 15.0 | 0.00 | 0.00 | 0.00 | 68 | 1018.4 |
| 20260507113026 | 65 | 132 | 3.0 | 10.0 | 0.00 | 0.00 | 0.00 | 70 | 1018.4 |
| 20260507111516 | 65 | 81 | 2.0 | 12.0 | 0.00 | 0.00 | 0.00 | 74 | 1018.5 |
| 20260507110014 | 64 | 148 | 4.0 | 11.0 | 0.00 | 0.00 | 0.00 | 78 | 1018.8 |
| 20260507104511 | 62 | 105 | 0.0 | 11.0 | 0.00 | 0.00 | 0.00 | 94 | 1018.8 |
| 20260507103010 | 62 | 106 | 3.0 | 9.0 | 0.00 | 0.00 | 0.00 | 94 | 1019.0 |
| 20260507101515 | 62 | 155 | 2.0 | 9.0 | 0.00 | 0.00 | 0.00 | 96 | 1019.0 |
| 20260507100008 | 62 | 89 | 2.0 | 10.0 | 0.00 | 0.00 | 0.00 | 97 | 1019.1 |
| 20260507094507 | 61 | 108 | 1.0 | 9.0 | 0.00 | 0.00 | 0.00 | 96 | 1019.2 |
| 20260507093009 | 61 | 93 | 4.0 | 10.0 | 0.00 | 0.00 | 0.00 | 96 | 1019.5 |
| 20260507091505 | 60 | 148 | 3.0 | 6.0 | 0.00 | 0.00 | 0.00 | 96 | 1019.4 |
| 20260507090004 | 60 | 133 | 2.0 | 5.0 | 0.00 | 0.00 | 0.00 | 98 | 1019.1 |
| 20260507084601 | 59 | 146 | 0.0 | 2.0 | 0.00 | 0.00 | 0.00 | 98 | 1019.2 |
| 20260507083059 | 59 | 123 | 1.0 | 4.0 | 0.00 | 0.00 | 0.00 | 99 | 1019.2 |
| 20260507081555 | 58 | 293 | 0.0 | 1.0 | 0.00 | 0.00 | 0.00 | 99 | 1019.4 |
| 20260507080052 | 57 | 293 | 0.0 | 2.0 | 0.00 | 0.00 | 0.00 | 99 | 1019.5 |
| 20260507074555 | 55 | 294 | 0.0 | 1.0 | 0.00 | 0.00 | 0.00 | 100 | 1019.7 |
| 20260507073047 | 54 | 294 | 0.0 | 0.0 | 0.00 | 0.00 | 0.00 | 100 | 1019.7 |
| 20260507071544 | 54 | 293 | 0.0 | 0.0 | 0.00 | 0.00 | 0.00 | 99 | 1019.6 |
| 20260507070047 | 53 | 294 | 0.0 | 0.0 | 0.00 | 0.00 | 0.00 | 99 | 1019.5 |
| 20260507064542 | 52 | 295 | 0.0 | 0.0 | 0.00 | 0.00 | 0.00 | 100 | 1019.3 |
| 20260507063037 | 51 | 294 | 0.0 | 0.0 | 0.00 | 0.00 | 0.00 | 99 | 1019.1 |
| 20260507061534 | 50 | 294 | 1.0 | 2.0 | 0.00 | 0.00 | 0.00 | 99 | 1019.1 |
| 20260507060035 | 48 | 293 | 0.0 | 0.0 | 0.00 | 0.00 | 0.00 | 99 | 1018.9 |
| 20260507054534 | 47 | 294 | 0.0 | 0.0 | 0.00 | 0.00 | 0.00 | 99 | 1018.8 |
| 20260507053032 | 47 | 295 | 0.0 | 0.0 | 0.00 | 0.00 | 0.00 | 99 | 1018.8 |
| 20260507051531 | 47 | 295 | 0.0 | 0.0 | 0.00 | 0.00 | 0.00 | 99 | 1018.5 |
| 20260507050037 | 47 | 294 | 0.0 | 1.0 | 0.00 | 0.00 | 0.00 | 99 | 1018.4 |
| 20260507044530 | 47 | 294 | 0.0 | 0.0 | 0.00 | 0.00 | 0.00 | 99 | 1018.4 |
| 20260507043029 | 47 | 294 | 0.0 | 0.0 | 0.00 | 0.00 | 0.00 | 99 | 1018.4 |
| 20260507041543 | 47 | 294 | 0.0 | 0.0 | 0.00 | 0.00 | 0.00 | 99 | 1018.4 |
| 20260507040026 | 47 | 293 | 0.0 | 1.0 | 0.00 | 0.00 | 0.00 | 99 | 1018.5 |
| 20260507034526 | 48 | 293 | 0.0 | 1.0 | 0.00 | 0.00 | 0.00 | 99 | 1018.3 |
| 20260507033022 | 48 | 294 | 0.0 | 1.0 | 0.00 | 0.00 | 0.00 | 99 | 1018.5 |
| 20260507031520 | 49 | 294 | 1.0 | 2.0 | 0.00 | 0.00 | 0.00 | 98 | 1018.5 |
| 20260507030017 | 50 | 293 | 0.0 | 0.0 | 0.00 | 0.00 | 0.00 | 96 | 1018.6 |
| 20260507024516 | 50 | 295 | 0.0 | 1.0 | 0.00 | 0.00 | 0.00 | 97 | 1018.5 |
| 20260507023015 | 50 | 294 | 0.0 | 0.0 | 0.00 | 0.00 | 0.00 | 95 | 1018.4 |
| 20260507021514 | 50 | 293 | 0.0 | 0.0 | 0.00 | 0.00 | 0.00 | 96 | 1018.4 |
| 20260507020014 | 50 | 294 | 0.0 | 0.0 | 0.00 | 0.00 | 0.00 | 97 | 1018.5 |
| 20260507014523 | 50 | 293 | 0.0 | 0.0 | 0.00 | 0.01 | 0.00 | 97 | 1018.8 |
| 20260507013030 | 50 | 293 | 0.0 | 0.0 | 0.00 | 0.01 | 0.00 | 97 | 1018.7 |
| 20260507011523 | 50 | 293 | 0.0 | 0.0 | 0.00 | 0.01 | 0.00 | 96 | 1018.6 |
| 20260507010009 | 50 | 294 | 0.0 | 0.0 | 0.00 | 0.01 | 0.00 | 96 | 1018.7 |
| 20260507004507 | 50 | 293 | 0.0 | 0.0 | 0.00 | 0.01 | 0.00 | 97 | 1018.9 |
| 20260507003005 | 50 | 293 | 0.0 | 0.0 | 0.00 | 0.01 | 0.00 | 96 | 1018.9 |
| 20260507001504 | 50 | 295 | 0.0 | 0.0 | 0.00 | 0.01 | 0.00 | 96 | 1019.0 |
| 20260507000017 | 51 | 293 | 0.0 | 0.0 | 0.00 | 0.01 | 0.00 | 96 | 1019.0 |
| 20260506234503 | 50 | 294 | 0.0 | 0.0 | 0.00 | 0.01 | 0.00 | 94 | 1019.1 |
| 20260506233002 | 51 | 294 | 0.0 | 0.0 | 0.00 | 0.01 | 0.00 | 94 | 1019.0 |
| 20260506231559 | 52 | 294 | 0.0 | 1.0 | 0.00 | 0.01 | 0.00 | 91 | 1019.1 |
| 20260506230059 | 52 | 293 | 0.0 | 0.0 | 0.00 | 0.01 | 0.00 | 93 | 1019.1 |
| 20260506224557 | 53 | 294 | 0.0 | 2.0 | 0.00 | 0.01 | 0.00 | 93 | 1019.0 |
| 20260506223118 | 51 | 152 | 0.0 | 0.0 | 0.00 | 0.01 | 0.00 | 91 | 1019.0 |
| 20260506221557 | 53 | 152 | 0.0 | 0.0 | 0.00 | 0.01 | 0.00 | 92 | 1019.0 |
| 20260506220051 | 52 | 153 | 0.0 | 0.0 | 0.00 | 0.01 | 0.00 | 91 | 1018.9 |
| 20260506214553 | 53 | 152 | 0.0 | 0.0 | 0.00 | 0.01 | 0.01 | 89 | 1018.8 |
| 20260506213049 | 54 | 153 | 0.0 | 0.0 | 0.00 | 0.01 | 0.01 | 89 | 1018.8 |
| 20260506211548 | 54 | 153 | 0.0 | 1.0 | 0.00 | 0.01 | 0.01 | 90 | 1018.9 |
| 20260506210048 | 53 | 152 | 0.0 | 0.0 | 0.00 | 0.01 | 0.01 | 89 | 1018.8 |
| 20260506204546 | 53 | 152 | 0.0 | 0.0 | 0.00 | 0.01 | 0.01 | 87 | 1018.6 |
| 20260506203046 | 55 | 152 | 0.0 | 0.0 | 0.00 | 0.01 | 0.01 | 85 | 1018.3 |
| 20260506201543 | 55 | 153 | 0.0 | 0.0 | 0.00 | 0.01 | 0.01 | 84 | 1018.2 |
| 20260506194540 | 58 | 152 | 0.0 | 0.0 | 0.00 | 0.01 | 0.01 | 78 | 1017.7 |
| 20260506193041 | 59 | 152 | 0.0 | 2.0 | 0.00 | 0.01 | 0.01 | 76 | 1017.4 |
| 20260506191539 | 60 | 134 | 1.0 | 4.0 | 0.00 | 0.01 | 0.01 | 75 | 1017.2 |
| 20260506190038 | 60 | 129 | 0.0 | 4.0 | 0.00 | 0.01 | 0.01 | 73 | 1017.1 |
| 20260506184537 | 61 | 190 | 0.0 | 6.0 | 0.00 | 0.01 | 0.01 | 71 | 1016.9 |
| 20260506183037 | 62 | 96 | 2.0 | 6.0 | 0.00 | 0.01 | 0.01 | 68 | 1016.6 |
| 20260506181538 | 63 | 177 | 3.0 | 9.0 | 0.00 | 0.01 | 0.01 | 66 | 1016.4 |
| 20260506180046 | 64 | 101 | 1.0 | 9.0 | 0.00 | 0.01 | 0.01 | 65 | 1016.3 |
| 20260506174536 | 64 | 116 | 1.0 | 8.0 | 0.00 | 0.02 | 0.01 | 64 | 1016.2 |
| 20260506173035 | 66 | 148 | 4.0 | 9.0 | 0.00 | 0.02 | 0.01 | 60 | 1016.0 |
| 20260506171547 | 66 | 125 | 3.0 | 5.0 | 0.00 | 0.02 | 0.01 | 56 | 1015.9 |
| 20260506170036 | 67 | 155 | 2.0 | 5.0 | 0.00 | 0.02 | 0.01 | 56 | 1015.7 |
| 20260506164536 | 67 | 180 | 3.0 | 10.0 | 0.00 | 0.17 | 0.01 | 54 | 1015.6 |